This is the latest recevied weather packets stored in our database for station/object DC7RY. If no packets are shown the sender has not sent any weather packets the latest 10 day(s).
| Time | Temp. | Humidity | Pressure | Rain* | Wind** | Luminosity | Snow |
|---|---|---|---|---|---|---|---|
| 1777908626 | 23.89° C | 46% | 1007.1 hPa | 0 mm | - | 105 W/m² | - |
| 1777908031 | 24.44° C | 45% | 1007.3 hPa | 0 mm | - | 113 W/m² | - |
| 1777907419 | 24.44° C | 46% | 1007.4 hPa | 0 mm | - | 120 W/m² | - |
| 1777906823 | 24.44° C | 45% | 1007.4 hPa | 0 mm | - | 150 W/m² | - |
| 1777906227 | 24.44° C | 44% | 1007.3 hPa | 0 mm | - | 182 W/m² | - |
| 1777905617 | 24.44° C | 42% | 1007.4 hPa | 0 mm | - | 178 W/m² | - |
| 1777905020 | 24.44° C | 43% | 1007.4 hPa | 0 mm | - | 236 W/m² | - |
| 1777904429 | 24.44° C | 41% | 1007.7 hPa | 0 mm | - | 221 W/m² | - |
| 1777903821 | 25.56° C | 42% | 1007.7 hPa | 0 mm | - | 273 W/m² | - |
| 1777903229 | 26.11° C | 40% | 1007.9 hPa | 0 mm | - | 210 W/m² | - |
| 1777902621 | 26.11° C | 38% | 1008 hPa | 0 mm | - | 370 W/m² | - |
| 1777902029 | 26.11° C | 39% | 1008.1 hPa | 0 mm | - | 400 W/m² | - |
| 1777901421 | 25° C | 39% | 1008.1 hPa | 0 mm | - | 385 W/m² | - |
| 1777900829 | 24.44° C | 41% | 1008.2 hPa | 0 mm | - | 332 W/m² | - |
| 1777900221 | 23.89° C | 42% | 1008.1 hPa | 0 mm | - | 404 W/m² | - |
| 1777899628 | 23.33° C | 42% | 1008.4 hPa | 0 mm | - | 391 W/m² | - |
| 1777899020 | 22.78° C | 43% | 1008.4 hPa | 0 mm | - | 374 W/m² | - |
| 1777898428 | 22.22° C | 44% | 1008.4 hPa | 0 mm | - | 258 W/m² | - |
| 1777897820 | 21.67° C | 48% | 1008.5 hPa | 0 mm | - | 216 W/m² | - |
| 1777897228 | 21.67° C | 48% | 1008.5 hPa | 0 mm | - | 132 W/m² | - |
| 1777896619 | 21.67° C | 48% | 1008.4 hPa | 0 mm | - | 155 W/m² | - |
| 1777896026 | 21.67° C | 47% | 1008.5 hPa | 0 mm | - | 149 W/m² | - |
| 1777895419 | 21.11° C | 47% | 1008.5 hPa | 0 mm | - | 136 W/m² | - |
| 1777894826 | 21.11° C | 46% | 1008.6 hPa | 0 mm | - | 124 W/m² | - |
| 1777894218 | 21.67° C | 46% | 1008.8 hPa | 0 mm | - | 112 W/m² | - |
* Rain latest hour (hover to see other rain measurements)
** Current wind speed in m/s (hover to see current wind gust speed)